Regional Weather Roundup
Issued by NWS Upton, NY

Current Version | Previous Version | Graphics & Text | Print | Product List | Glossary Off
Versions: 1 2 3 4 5 6 7 8 9 10 11 12 13 14 15 16 17 18 19 20 21 22 23 24 25 26 27

000
ASUS41 KOKX 270508
RWROKX

REGIONAL WEATHER ROUNDUP
NATIONAL WEATHER SERVICE NEW YORK NY
100 AM EDT MON MAR 27 2017

NOTE: "FAIR" INDICATES FEW OR NO CLOUDS BELOW 12,000 FEET WITH NO
SIGNIFICANT WEATHER AND/OR OBSTRUCTIONS TO VISIBILITY.

NYZ071-072-176-178-NJZ106-104-270600-
NEW YORK CITY METRO AREA

CITY           SKY/WX    TMP DP  RH WIND       PRES   REMARKS
Central Park   CLOUDY    38  37  97 NE10      30.31F FOG     WCI  31
Wall St Helipt CLOUDY    39  37  93 NE12      30.30F WCI  32
LaGuardia APRT DRIZZLE   40  37  89 NE15      30.29F FOG     WCI  32
Kennedy INTL   DRIZZLE   40  39  97 NE9       30.30F FOG     WCI  34
Breezy Point     N/A     37 N/A N/A NE8         N/A  WCI  31
Newark/Liberty DRIZZLE   40  39  97 NE7       30.29F FOG
Teterboro      CLOUDY    39  37  92 E8        30.29F FOG     WCI  33
$$

NYZ177-179-078>081-270600-
LONG ISLAND NEW YORK

CITY           SKY/WX    TMP DP  RH WIND       PRES   REMARKS
Jones Beach      N/A     39 N/A N/A E18         N/A  WCI  30
Matinecock PT  NOT AVBL
Farmingdale    CLOUDY    39  38  96 NE8       30.29F FOG     WCI  33
MacArthur/ISP  CLOUDY    38  38 100 E7        30.29F FOG     WCI  33
Shirley        CLOUDY    38  38 100 CALM      30.31F FOG
Westhampton    CLOUDY    38  36  92 E7        30.32F FOG     WCI  33
East Hampton   CLOUDY    37  36  96 E8        30.32F FOG     WCI  30
Montauk        NOT AVBL
$$

NYZ052-065-067-270600-
HUDSON VALLEY

CITY           SKY/WX    TMP DP  RH WIND       PRES   REMARKS
White Plains   DRIZZLE   36  34  92 E8        30.28F FOG     WCI  30
Newburgh       CLOUDY    36  36 100 E7        30.29F FOG     WCI  30
Montgomery     CLOUDY    36  35  96 NE5       30.27F FOG     WCI  32
Poughkeepsie   CLOUDY    35  32  88 SE5       30.29F WCI  31
Albany         CLOUDY    37  29  72 S12G18    30.27F WCI  29
$$

NJZ001-105-106-008-010-013-015-019>022-104-270600-
NEW JERSEY

CITY           SKY/WX    TMP DP  RH WIND       PRES   REMARKS
Newark/Liberty DRIZZLE   40  39  97 NE7       30.29F FOG
Teterboro      CLOUDY    39  37  92 E8        30.29F FOG     WCI  33
Caldwell       CLOUDY    38  36  92 E7        30.29F FOG     WCI  33
Somerville     CLOUDY    40  39  97 E5        30.26F FOG
Linden         CLOUDY    40  38  93 E7        30.29F FOG
Sussex         LGT RAIN  37  36  96 N3        30.27F FOG
Andover          N/A     37  35  92 N3        30.26F
Trenton        CLOUDY    40  39  97 E9        30.25F FOG     WCI  34
Millville      CLOUDY    44  44 100 E8        30.21F FOG
Atlantic City  FOG       45  44  97 NE7       30.23F VSB 1/2
Wrightstown    CLOUDY    41  40  96 NE9       30.22F FOG
Toms River     LGT RAIN  41  41 100 NE7       30.26F FOG
Belmar         LGT RAIN  40  39  97 NE9       30.27F FOG     WCI  34
$$

PAZ047>061-062-071-270600-
EASTERN PENNSYLVANIA

CITY           SKY/WX    TMP DP  RH WIND       PRES   REMARKS
Philadelphia   CLOUDY    42  40  92 NE7       30.24F FOG
Allentown      CLOUDY    40  37  89 E9        30.24F FOG     WCI  34
Scranton       CLOUDY    39  35  86 E5        30.18F
$$

CTZ002-004>006-009-010-012-RIZ004-006-007-MAZ004-011-015-270600-
SOUTHERN NEW ENGLAND
 IN CT

CITY           SKY/WX    TMP DP  RH WIND       PRES   REMARKS
Bradley INTL   CLOUDY    37  29  72 SE8       30.34F WCI  31
Hartford       CLOUDY    37  29  72 E5        30.34F WCI  33
Danbury        CLOUDY    35  34  96 E6        30.31F FOG     WCI  30
Wtrbury/Oxford CLOUDY    34  28  80 E6        30.30F WCI  29
Bridgeport     CLOUDY    38  35  89 E14       30.33F FOG     WCI  30
Meriden        CLOUDY    37  31  78 NE5       30.34F WCI  33
New Haven      CLOUDY    36  34  92 E7        30.33F FOG     WCI  30
Chester        NOT AVBL
Groton         CLOUDY    36  34  92 E9        30.34F FOG     WCI  29
Wilimantic     CLOUDY    38  30  73 E6        30.35F WCI  33

 IN RI

CITY           SKY/WX    TMP DP  RH WIND       PRES   REMARKS
Providence     CLOUDY    38  28  67 E9        30.37F WCI  31
Block Island   MIX PCPN  37  36  96 E12       30.34F FOG     WCI  29
Westerly       CLOUDY    37  35  92 NE8       30.35F FOG     WCI  31
 IN MA

CITY           SKY/WX    TMP DP  RH WIND       PRES   REMARKS
Boston         CLOUDY    37  32  82 SE8       30.39F WCI  31
Worcester      CLOUDY    32  27  81 E5        30.31F WCI  27
Westfield      CLOUDY    36  29  75 S6        30.33F WCI  31
Provincetown   CLOUDY    38  29  70 SE6       30.38F WCI  33
Nantucket      CLOUDY    39  33  79 E13       30.35F WCI  31
$$

ANZ330-335-338-340-345-350-353-355-270600-
COASTAL MARINE OBSERVATIONS


STATION/POSITION TIME  SKY/WX   TEMP    WIND        PRES    VSBY  WAVE
                                AIR SEA DIR/SP/G                  HT/PER
                 (UTC)          (F)     (DEG/KT/KT) (MB)    (MI)  (FT/S)
NY HARB ENTRANCE 0350            40 42   70/ 16/ 19 1026.0          6/ 7
20 S FIRE ISLAND 0450            41 40   70/ 16/ 17 1024.4          6/ 6
GREAT SOUTH BAY  NOT AVBL
23 SSW MONTAUK P 0350            40 43              1027.2          6/ 7
15 E BARNEGAT LI 0430               43                N/A           6/ 7
HUDSON CANYON    0350            47 44   90/ 10/ 12 1024.5          8/ 8
KINGS POINT      0448            37 39              1025.9
EXECUTION ROCKS  NOT AVBL
CENTRAL LI SOUND 0430            38      90/ 16/ 19   N/A           2/ 4
EASTERN LI SOUND NOT AVBL
ROBBINS REEF     0448            39      60/  8/ 10 1025.8
$$


>>>>>>>>>>>>>>>>>>>>>>>>>>>> KEY <<<<<<<<<<<<<<<<<<<<<<<<<<<
>                                                          <
>     SKY/WX - Sky Condition/Present Weather               <
>     TMP    - Temperature in Fahrenheit                   <
>     DP     - Dew Point in Fahrenheit                     <
>     RH     - Relative Humidity in Percent                <
>     WIND   - Direction (from) and Speed in MPH           <
>     PRES   - Mean Sea Level Pressure (inches of Hg)      <
>     WCI    - Wind Chill Index                            <
>     VSB    - VISIBILITY IN MILES                         <
>     HX     - HEAT INDEX                                  <
>     TC     - TEMPERATURE IN CELSIUS                      <
>     VRB    - VARIABLE WIND DIRECTION                     <
>                                                          <
>>>>>>>>>>>>>>>>>>>>>>>>>>>> KEY <<<<<<<<<<<<<<<<<<<<<<<<<<<




USA.gov is the U.S. government's official web portal to all federal, state and local government web resources and services.